TimeEST,TemperatureF,Dew PointF,Humidity,Sea Level PressureIn,VisibilityMPH,Wind Direction,Wind SpeedMPH,Gust SpeedMPH,PrecipitationIn,Events,Conditions,WindDirDegrees,DateUTC
12:53 AM,32.0,28.9,88,30.25,3.0,SSE,8.1,-,0.08,,Overcast,160,2013-01-28 05:53:00
1:53 AM,33.1,30.0,89,30.21,3.0,SSE,8.1,-,0.08,Rain,Light Rain,150,2013-01-28 06:53:00
2:16 AM,33.8,30.2,87,30.17,3.0,SSE,9.2,-,0.02,Rain,Light Rain,150,2013-01-28 07:16:00
2:33 AM,33.8,30.2,87,30.16,4.0,SSE,10.4,-,0.04,Rain,Rain,150,2013-01-28 07:33:00
2:53 AM,34.0,32.0,92,30.19,5.0,South,8.1,-,0.05,,Overcast,170,2013-01-28 07:53:00
3:46 AM,35.6,33.8,93,30.16,6.0,South,5.8,-,0.01,,Overcast,170,2013-01-28 08:46:00
3:53 AM,35.1,33.1,92,30.18,6.0,SSE,6.9,-,0.01,,Overcast,160,2013-01-28 08:53:00
4:53 AM,35.1,33.1,92,30.16,4.0,SSE,4.6,-,0.00,,Overcast,150,2013-01-28 09:53:00
5:32 AM,35.6,33.8,93,30.12,4.0,South,8.1,-,N/A,,Overcast,170,2013-01-28 10:32:00
5:53 AM,36.0,35.1,97,30.14,4.0,SSE,6.9,-,N/A,,Overcast,150,2013-01-28 10:53:00
6:53 AM,39.9,37.0,89,30.13,8.0,South,9.2,-,N/A,,Overcast,190,2013-01-28 11:53:00
7:53 AM,41.0,37.0,86,30.11,9.0,South,10.4,-,N/A,,Overcast,190,2013-01-28 12:53:00
8:53 AM,44.1,37.0,76,30.10,10.0,SSW,12.7,-,N/A,,Overcast,210,2013-01-28 13:53:00
9:53 AM,46.0,39.0,76,30.11,10.0,WSW,10.4,-,N/A,,Overcast,240,2013-01-28 14:53:00
10:09 AM,44.6,39.2,81,30.09,2.0,SSW,8.1,-,0.03,Rain,Rain,210,2013-01-28 15:09:00
10:14 AM,44.6,39.2,81,30.09,1.5,SW,5.8,-,0.06,Rain,Heavy Rain,230,2013-01-28 15:14:00
10:35 AM,44.6,41.0,87,30.09,2.5,SW,8.1,-,0.11,Rain,Rain,220,2013-01-28 15:35:00
10:46 AM,44.6,42.8,93,30.10,3.0,SW,8.1,-,0.12,Rain,Light Rain,230,2013-01-28 15:46:00
10:53 AM,45.0,42.1,90,30.11,4.0,SW,6.9,-,0.12,Rain,Light Rain,230,2013-01-28 15:53:00
11:11 AM,44.6,42.8,93,30.10,2.5,SW,9.2,-,0.03,Rain,Rain,230,2013-01-28 16:11:00
11:26 AM,46.4,42.8,87,30.10,4.0,WSW,9.2,-,0.04,Rain,Light Rain,240,2013-01-28 16:26:00
11:39 AM,46.4,42.8,87,30.09,2.5,SW,9.2,-,0.05,Rain,Light Rain,230,2013-01-28 16:39:00
11:48 AM,46.4,44.6,93,30.09,3.0,SW,10.4,-,0.06,Rain,Light Rain,230,2013-01-28 16:48:00
11:53 AM,46.9,44.1,90,30.10,4.0,SW,10.4,-,0.06,Rain,Light Rain,230,2013-01-28 16:53:00
12:53 PM,48.9,45.0,86,30.07,6.0,SW,13.8,-,0.00,Rain,Light Rain,230,2013-01-28 17:53:00
1:53 PM,50.0,46.0,86,30.04,7.0,WSW,15.0,23.0,0.00,,Overcast,240,2013-01-28 18:53:00
2:18 PM,50.0,46.4,87,30.03,7.0,WSW,13.8,-,N/A,,Overcast,240,2013-01-28 19:18:00
2:53 PM,50.0,46.9,89,30.05,5.0,WSW,15.0,23.0,0.01,Rain,Light Rain,240,2013-01-28 19:53:00
3:53 PM,51.1,48.0,89,30.04,7.0,WSW,11.5,-,0.00,,Overcast,240,2013-01-28 20:53:00
4:53 PM,50.0,46.9,89,30.05,7.0,SW,10.4,18.4,N/A,,Overcast,230,2013-01-28 21:53:00
5:04 PM,50.0,46.4,87,30.04,7.0,SW,12.7,-,N/A,,Overcast,230,2013-01-28 22:04:00
5:53 PM,50.0,48.0,93,30.06,8.0,SW,9.2,-,N/A,,Overcast,230,2013-01-28 22:53:00
6:53 PM,51.1,48.0,89,30.07,7.0,SW,9.2,-,N/A,,Overcast,230,2013-01-28 23:53:00
7:25 PM,51.8,48.2,88,30.07,7.0,SW,10.4,18.4,N/A,,Overcast,230,2013-01-29 00:25:00
7:53 PM,51.1,48.0,89,30.08,6.0,SW,8.1,-,N/A,,Overcast,230,2013-01-29 00:53:00
8:53 PM,51.1,48.9,92,30.07,5.0,SW,10.4,-,N/A,,Overcast,230,2013-01-29 01:53:00
9:53 PM,51.1,48.9,92,30.07,5.0,SW,8.1,-,N/A,,Overcast,220,2013-01-29 02:53:00
10:53 PM,51.1,48.9,92,30.07,5.0,SW,8.1,-,N/A,,Overcast,230,2013-01-29 03:53:00
11:53 PM,51.1,50.0,96,30.07,3.0,SW,6.9,-,N/A,,Overcast,230,2013-01-29 04:53:00